RH
15 14 15 15 14 16 18 16 14 15 15 14 13 13 13 12 12 11 13 13 17 20 19 19 19 20 24 28 26 27 28 26 26 26 32 38 34 35 35 36 39 40 41 43 38 30 30 31 34 36 32 27 27 29 30 31 32 33 33 33 32 32 31 30 28 25 24 23 23 23 22 21 20 21 25 28 29 34 40 43 43 43 43 43 43 43 43 44 47 49 48 48 48 49 50 50 51
11 12 13 13 14 16 16 14 14 15 14 13 12 12 12 12 11 11 12 14 18 21 19 19 20 22 23 24 24 26 29 28 27 28 33 35 35 36 36 37 39 41 43 43 39 32 31 32 34 36 30 26 27 29 29 30 30 30 32 31 31 31 30 28 25 24 24 23 23 24 23 22 22 22 25 29 30 34 41 45 44 43 45 45 44 45 45 44 46 48 47 46 45 46 47 49 51
8 9 12 12 12 13 14 13 13 14 13 12 12 11 10 10 10 12 12 13 17 18 18 18 20 22 23 25 26 28 30 31 29 29 33 34 35 37 37 38 39 40 41 42 40 35 33 33 36 36 29 26 27 28 28 29 29 29 30 30 30 29 28 26 24 24 24 24 24 25 25 23 23 24 26 30 32 35 41 45 44 44 46 48 46 45 45 43 43 45 45 44 44 45 47 49 51
6 7 11 13 11 10 12 12 12 12 11 10 10 10 8 9 10 11 11 12 15 16 18 18 20 24 27 29 28 29 29 30 30 29 32 33 34 37 39 39 39 40 39 39 40 38 35 33 37 35 28 28 28 28 28 28 28 29 31 30 28 27 26 26 25 25 25 25 25 26 26 24 23 25 28 30 34 37 42 45 44 45 48 52 51 45 43 42 40 41 44 43 43 43 45 46 44
6 7 8 10 11 11 12 12 11 10 9 8 9 9 8 10 10 10 9 11 14 16 18 20 25 26 27 30 29 29 29 30 30 29 31 33 35 37 39 39 39 39 38 39 40 42 37 34 38 35 29 29 30 29 28 28 28 29 30 28 27 27 26 26 26 25 25 26 27 27 28 26 24 26 29 32 35 37 42 46 46 44 45 53 53 45 41 41 39 38 41 43 42 39 39 39 36
7 8 8 8 10 11 11 11 10 9 7 7 8 9 8 10 10 9 8 10 13 16 19 21 26 26 26 31 32 31 29 29 29 30 32 35 37 37 38 38 38 38 39 40 41 44 39 37 40 36 30 30 31 30 29 29 28 28 29 28 28 27 27 27 27 26 26 27 27 28 29 28 26 26 29 32 34 36 40 43 44 41 39 46 50 45 41 39 37 36 38 42 41 36 34 33 30
8 9 8 7 9 9 11 11 9 8 7 6 7 9 9 9 9 9 8 11 14 16 20 21 23 27 29 30 31 31 31 30 29 30 33 36 36 35 36 36 38 39 40 41 43 45 40 38 41 37 32 32 32 31 30 29 30 30 30 29 28 28 27 27 28 28 27 27 28 29 29 29 27 27 28 30 32 34 38 39 38 36 35 41 47 45 41 38 36 35 36 40 40 35 32 30 28
8 9 8 8 11 10 10 11 9 8 7 5 6 9 9 9 9 9 9 11 16 17 19 21 21 28 30 26 28 30 32 32 31 33 35 36 35 33 34 35 38 39 40 41 43 44 40 40 42 39 34 33 33 32 31 30 31 31 31 30 30 29 28 28 29 28 27 28 28 29 30 31 30 29 29 29 31 33 36 36 32 32 33 39 45 44 42 40 36 35 34 37 39 35 34 32 30
7 8 8 8 11 11 9 9 8 7 6 5 7 9 9 9 9 9 10 10 15 17 19 21 20 27 28 24 28 30 34 35 33 36 36 36 35 34 35 37 39 41 42 42 42 42 41 41 43 41 37 35 35 34 32 31 32 31 31 31 31 31 29 29 30 30 29 29 29 29 30 32 32 30 29 29 31 33 34 35 32 31 33 38 44 44 44 42 36 33 32 34 36 36 36 35 33
7 8 10 9 10 9 8 7 7 6 6 6 8 9 9 9 9 9 11 11 15 19 20 21 19 24 25 24 30 31 35 37 35 38 37 37 36 36 36 39 42 43 44 42 42 42 42 43 44 44 41 37 36 35 34 33 33 31 31 32 32 32 31 31 32 31 29 29 30 31 33 35 33 29 29 30 31 33 34 35 32 32 34 38 44 44 43 43 38 34 31 31 34 36 37 37 37
9 8 8 9 8 8 7 7 6 6 6 8 9 9 9 9 10 10 12 14 17 20 20 21 20 22 23 25 31 33 36 37 37 38 38 37 38 39 38 40 43 44 45 45 45 45 44 45 47 47 44 42 39 38 39 37 35 32 31 32 33 33 32 32 33 32 31 30 32 33 35 35 33 31 31 31 32 33 33 34 32 33 34 38 44 44 42 43 43 39 33 31 34 37 37 37 39
11 10 7 8 8 8 7 6 5 6 7 9 9 8 9 9 11 11 14 18 18 19 20 22 23 23 23 26 29 34 38 38 37 38 38 38 38 39 39 39 42 44 48 48 49 50 48 48 49 49 48 46 43 42 41 41 39 35 33 33 34 34 33 34 34 33 32 31 33 35 35 33 33 33 32 32 33 33 34 34 33 33 35 38 43 44 42 45 47 45 40 34 34 38 39 38 39
10 12 8 8 9 8 7 6 5 7 9 9 9 9 10 10 13 15 19 22 22 23 21 22 25 24 26 28 30 35 37 39 39 39 39 37 36 37 38 40 43 47 50 51 54 54 50 49 52 52 51 49 47 45 43 43 43 41 38 38 39 38 36 36 37 35 33 33 35 36 35 33 35 35 33 34 34 34 35 35 34 33 35 38 43 44 44 46 48 49 48 41 35 39 42 42 40
10 11 9 8 10 8 6 6 6 9 11 9 9 11 13 13 16 20 25 26 25 28 25 24 25 25 31 31 32 33 34 39 38 37 37 35 34 35 39 43 45 50 50 50 54 56 51 50 54 55 55 53 52 51 48 45 47 46 44 44 44 42 42 42 42 39 38 37 37 36 35 34 37 37 36 36 36 36 36 36 35 35 36 39 43 44 44 46 48 50 52 48 41 39 43 45 43
11 10 9 10 10 7 6 7 8 12 13 9 10 14 16 18 20 22 29 30 25 27 26 24 26 29 34 32 33 33 33 38 36 35 34 33 33 34 42 46 48 52 51 51 53 56 54 51 53 56 58 58 58 58 55 50 49 50 49 48 46 46 48 48 47 44 43 42 39 37 35 37 40 39 38 39 40 39 38 37 36 37 37 40 45 46 44 46 48 49 53 54 49 43 43 45 46
10 9 11 10 9 7 7 8 9 12 12 10 12 15 20 22 21 22 26 30 26 26 28 26 29 32 32 31 33 32 34 36 35 34 33 33 33 34 41 46 50 55 56 56 55 56 56 54 55 58 61 61 63 64 62 57 51 50 52 51 51 52 54 53 51 48 47 45 41 40 40 44 48 46 43 44 45 43 40 37 36 38 40 41 47 49 47 47 47 48 52 55 54 49 45 45 47
9 10 11 10 8 8 8 9 11 13 11 11 13 16 26 26 22 25 25 26 26 27 30 30 31 32 31 31 32 32 34 35 34 34 32 33 34 35 40 45 49 55 57 58 58 56 56 59 61 62 65 64 64 67 67 66 59 56 59 59 59 58 58 57 55 54 52 47 43 43 45 47 50 51 51 50 52 50 45 40 36 39 42 43 48 52 51 49 48 47 51 54 54 52 48 46 48
9 10 11 9 8 7 9 11 11 13 11 13 16 15 26 30 23 25 25 24 26 28 30 31 31 32 31 32 32 32 33 34 34 34 32 31 33 35 40 44 48 53 54 55 58 57 55 62 64 63 67 67 66 70 72 73 68 66 67 65 65 65 62 61 60 59 57 50 46 48 49 49 51 55 57 57 57 55 51 45 37 38 42 44 49 52 54 53 50 49 50 53 52 52 51 48 49
11 12 11 9 8 8 10 11 10 11 11 13 18 17 24 33 26 25 28 24 24 27 28 29 31 32 31 31 32 31 32 34 34 33 31 29 31 34 39 43 46 51 54 55 57 56 56 63 64 63 66 67 68 72 74 76 74 73 72 68 65 66 65 62 61 59 58 55 53 55 57 59 62 61 63 65 62 57 56 52 42 38 40 45 50 54 56 55 54 52 51 53 52 51 52 50 50
12 12 10 8 8 9 11 12 11 11 13 15 19 20 23 30 25 26 33 27 26 28 25 25 28 29 30 30 31 31 32 34 34 33 30 29 31 35 40 44 47 51 54 56 56 56 58 62 63 64 66 66 67 70 73 75 73 73 75 72 65 63 63 64 63 63 64 64 63 64 65 67 68 65 66 72 69 63 59 56 48 40 40 44 50 55 58 57 57 56 54 53 51 53 55 54 53
13 10 9 10 8 10 12 12 12 11 14 16 17 18 18 23 20 23 34 30 30 30 23 22 23 25 29 30 31 31 32 34 35 33 31 32 34 38 43 46 47 50 52 54 56 58 60 62 63 65 65 63 63 65 68 71 69 70 75 74 69 67 68 69 69 69 68 67 67 68 70 70 67 65 70 76 76 73 67 62 55 47 45 45 49 57 61 61 59 57 57 52 52 58 59 58 56
13 9 9 11 7 11 15 14 14 13 14 14 15 15 14 17 15 19 30 30 29 28 24 22 22 24 28 30 32 30 32 35 35 33 33 37 39 41 44 45 47 48 50 53 57 61 62 63 63 63 63 60 58 61 65 68 67 69 76 76 74 74 74 74 74 73 69 66 67 68 69 68 65 66 72 74 73 76 77 74 67 60 57 52 50 59 65 64 63 62 59 55 57 60 59 56 54
11 10 9 9 8 12 16 16 16 15 14 14 14 14 14 14 14 18 24 24 24 22 22 25 24 27 28 30 31 31 32 34 34 34 37 40 42 43 43 44 46 47 50 54 58 62 61 61 62 60 59 57 56 59 63 67 68 71 76 76 76 78 78 78 76 74 71 68 68 68 67 69 67 69 71 71 69 72 78 81 79 73 69 61 53 59 67 67 67 67 64 62 63 62 60 57 54
10 12 10 7 9 12 16 17 16 15 15 14 14 14 14 14 15 17 18 20 22 19 20 27 28 28 29 30 31 32 32 32 35 38 39 41 43 44 43 43 45 46 49 52 55 59 61 60 60 59 57 56 55 58 62 66 70 72 75 76 77 78 78 79 78 75 73 71 70 68 69 71 70 70 70 71 71 72 77 81 82 81 77 69 58 57 65 68 66 66 67 67 66 66 63 61 59
8 11 11 8 9 13 16 17 16 16 15 14 14 14 14 14 15 16 16 20 23 20 23 28 29 29 29 30 31 32 31 32 37 41 42 44 45 46 45 44 45 46 47 50 53 58 62 60 59 60 59 57 56 58 62 65 70 74 75 77 78 79 78 79 79 77 75 75 72 70 70 69 68 69 71 73 74 74 78 81 82 84 80 72 62 57 59 64 65 62 63 66 67 66 64 63 62
9 10 11 9 10 13 16 17 16 16 15 15 15 14 14 14 14 15 17 22 24 24 26 29 30 30 29 30 32 32 30 32 38 41 43 45 47 48 47 47 48 48 48 51 54 59 62 61 61 62 61 59 58 61 64 65 69 74 74 75 77 78 78 78 78 80 79 78 75 72 71 70 69 71 73 74 73 71 73 77 79 79 77 69 59 54 53 57 63 61 59 64 66 66 66 65 66
12 10 10 10 11 14 16 17 16 16 15 14 15 14 14 14 14 16 19 24 27 26 28 31 31 29 30 31 32 32 30 31 37 40 43 46 48 50 50 50 51 51 53 55 57 59 59 59 62 63 62 62 62 64 67 66 67 69 71 74 76 77 78 78 79 82 82 79 77 75 74 74 73 73 73 71 70 67 67 71 74 74 73 69 61 58 58 58 62 60 60 64 66 67 68 69 69
13 10 11 10 11 12 15 16 16 15 15 14 14 14 15 14 16 20 24 27 28 29 31 31 30 29 30 30 31 33 30 31 36 38 41 44 47 51 52 52 53 54 57 58 59 59 57 57 59 59 60 60 61 64 66 66 66 67 70 73 76 77 79 79 79 80 80 80 78 76 76 77 77 75 72 70 70 69 68 70 74 75 74 74 70 67 68 68 66 63 65 67 67 69 70 72 73
12 11 11 12 11 12 14 16 16 15 14 15 14 15 15 15 16 19 25 29 29 32 34 30 29 30 29 30 32 33 31 33 36 38 39 42 44 47 49 53 57 58 58 58 58 59 57 56 56 56 57 57 58 62 64 65 66 67 69 73 76 78 78 77 76 76 77 78 77 75 75 77 77 76 73 72 73 72 72 75 78 79 78 78 76 74 75 75 74 71 71 70 70 71 71 73 74
12 11 11 13 12 14 15 15 16 15 14 15 14 16 17 16 17 17 23 29 27 28 31 28 29 30 30 32 33 33 33 34 36 38 39 40 42 44 47 53 57 58 58 58 58 58 55 54 54 54 56 56 58 61 64 66 67 67 70 75 77 75 72 71 71 72 73 74 74 73 72 74 75 74 73 74 74 75 76 78 81 83 83 81 80 79 78 78 77 77 76 74 74 73 72 73 74
12 11 11 13 14 14 15 15 15 14 14 14 15 20 21 18 19 18 21 28 25 23 26 27 29 31 32 34 34 34 35 34 35 37 38 39 41 43 47 51 55 60 60 58 59 58 55 51 50 52 54 57 59 61 65 66 68 70 72 75 74 70 68 67 68 69 70 71 72 71 69 69 71 72 74 74 74 77 78 79 80 83 85 84 82 81 80 78 78 79 78 76 77 77 75 73 73
12 11 11 14 14 14 15 16 15 14 14 14 15 19 21 19 21 21 21 26 25 20 23 27 29 31 34 35 36 38 37 34 35 37 37 40 41 42 47 48 53 61 60 57 54 51 49 47 46 50 52 55 58 62 68 70 69 71 72 73 71 67 66 65 66 67 68 70 71 70 67 65 67 69 72 74 73 73 77 80 79 80 83 83 82 82 80 77 77 80 81 77 77 80 79 74 73
13 12 14 14 12 14 16 16 15 14 14 13 14 19 21 20 20 22 23 25 25 20 21 26 29 31 34 37 38 38 36 35 36 37 38 40 40 42 46 47 52 59 57 53 50 45 45 47 49 52 53 53 55 62 69 71 69 68 68 69 68 66 65 64 66 66 66 68 70 69 65 62 64 65 67 69 69 68 72 77 77 77 79 80 81 82 82 81 80 81 84 81 80 84 84 80 77
13 13 19 15 11 14 15 15 15 14 15 14 16 20 22 21 21 23 23 24 25 22 21 25 28 29 33 38 39 37 37 38 38 38 39 41 41 43 46 45 50 56 55 52 51 49 49 50 53 53 54 54 54 60 66 67 64 64 64 64 63 65 64 62 64 66 66 65 66 65 63 62 62 63 64 64 65 67 72 76 78 77 77 78 80 84 87 88 86 84 86 87 84 86 88 86 80
15 15 20 17 12 15 14 15 16 14 15 16 18 21 21 21 22 23 25 25 25 23 25 28 29 29 33 38 40 39 40 41 41 41 40 40 42 44 47 47 51 55 53 51 50 51 53 53 56 54 52 54 55 60 65 66 65 65 65 61 57 58 58 59 59 62 66 69 69 65 64 66 65 63 62 62 63 68 73 76 78 79 80 81 83 86 89 90 87 85 89 90 88 89 92 90 83
16 14 18 16 13 15 15 15 16 15 18 21 24 24 22 22 22 23 26 26 26 25 27 29 29 33 38 40 41 42 43 44 44 45 44 42 41 43 50 53 55 56 53 52 50 51 55 56 57 54 51 52 53 57 62 66 67 67 67 63 57 53 53 55 56 58 63 70 73 67 63 67 70 70 68 66 67 69 73 78 81 83 85 84 85 86 89 90 88 86 90 93 92 93 95 93 85
15 13 16 15 13 15 16 17 17 18 25 30 28 24 23 23 23 24 26 26 27 27 27 28 30 35 39 40 42 44 46 47 47 46 46 45 42 42 49 53 54 55 52 50 49 50 54 56 55 53 52 52 52 53 56 60 63 65 65 63 57 53 51 54 57 57 60 66 70 67 63 65 68 71 70 69 71 72 73 79 83 83 82 82 83 86 88 91 90 89 91 95 96 97 96 93 85
14 14 16 15 13 16 17 16 17 18 25 30 26 23 24 24 24 25 26 25 27 29 29 29 30 33 36 37 41 46 48 50 49 47 46 46 45 43 47 51 52 53 50 45 45 46 48 51 51 51 52 53 54 54 54 55 57 59 60 58 54 52 51 52 56 59 61 65 68 67 65 65 66 66 65 66 70 72 73 76 80 80 79 79 83 85 86 89 92 93 94 97 97 98 98 93 85
15 15 16 15 14 18 18 17 16 17 25 30 27 26 27 26 25 26 26 25 28 31 32 32 32 33 36 36 40 44 47 49 48 47 46 45 46 45 45 47 48 50 49 46 45 43 44 46 46 47 48 50 51 52 54 55 56 56 54 52 50 48 47 47 53 60 65 66 66 64 62 63 66 65 63 63 64 66 69 73 75 76 76 78 81 82 84 87 92 94 94 96 98 98 98 95 89
17 17 16 15 15 19 18 18 18 19 26 30 28 28 29 29 29 28 27 26 28 32 34 36 35 35 37 38 40 43 45 47 46 45 45 44 44 43 42 43 43 44 46 47 45 42 43 44 44 45 46 47 47 47 49 52 53 53 51 49 48 47 46 47 54 62 69 70 67 64 61 59 63 66 66 65 61 58 61 65 68 70 74 77 79 80 84 88 90 93 93 94 97 98 97 95 90
19 19 17 15 16 17 18 20 20 22 29 30 27 30 37 40 39 36 34 30 29 31 33 36 38 37 37 39 41 43 45 46 46 45 44 44 43 42 41 41 42 41 43 44 42 42 42 43 43 43 44 45 46 45 47 48 48 48 48 48 47 47 47 48 52 61 69 72 71 68 63 60 61 64 66 68 64 58 56 58 59 62 66 70 72 77 84 87 90 94 95 94 97 97 96 94 91
23 20 18 17 16 18 21 22 22 27 34 33 26 27 39 46 43 44 44 37 31 31 33 35 38 38 37 39 41 43 45 46 47 46 46 45 44 42 42 42 42 42 42 42 41 41 42 43 43 43 43 43 44 45 46 47 48 48 47 47 47 48 50 50 51 56 62 66 68 70 69 67 65 64 64 66 68 64 59 56 54 56 59 61 66 73 80 85 90 95 95 95 97 97 96 96 94
25 20 18 19 18 19 21 21 23 27 31 31 25 25 42 50 44 45 49 44 35 33 36 37 38 39 38 39 42 43 45 47 47 47 47 46 45 44 42 42 42 43 43 42 42 42 42 43 43 43 44 44 45 46 46 47 49 50 50 49 50 51 52 52 51 53 57 58 61 64 65 65 64 62 60 61 65 66 63 59 56 58 60 61 65 71 77 84 89 92 93 95 97 96 95 96 96
26 21 18 18 18 18 19 19 22 26 28 30 25 22 38 51 49 46 49 48 42 36 37 38 37 39 40 41 43 45 46 47 47 47 47 46 45 44 43 43 44 44 44 44 44 44 44 44 44 43 46 47 48 50 50 50 51 51 51 52 53 53 52 52 52 55 58 58 60 63 61 59 58 58 58 59 62 65 65 61 59 62 64 63 65 67 75 82 84 87 89 92 94 93 92 93 94
26 22 18 19 18 18 19 18 19 24 26 27 24 20 28 45 52 50 46 49 48 40 38 40 39 39 40 42 44 45 46 46 47 47 47 46 44 43 43 44 45 45 45 45 44 45 45 45 45 44 46 49 50 52 53 54 54 53 54 54 55 56 55 54 55 59 62 60 62 65 63 58 57 59 58 57 60 65 66 62 61 64 65 65 65 68 75 80 82 86 88 89 90 89 90 91 92
24 21 18 20 20 19 20 19 19 24 24 23 24 20 23 41 54 52 46 49 52 45 40 40 41 40 40 41 43 44 45 45 47 46 46 45 45 44 43 43 44 44 45 46 44 44 43 44 45 45 46 48 50 52 55 56 56 55 55 54 53 54 55 56 56 58 60 61 65 70 69 64 62 66 64 59 58 64 66 64 63 65 65 64 68 75 78 77 78 84 86 88 89 87 87 89 89
20 18 18 21 21 20 21 20 21 25 25 23 25 23 23 39 52 52 49 53 54 48 44 43 41 41 42 42 42 43 43 44 45 46 45 45 45 45 44 42 42 43 44 45 45 44 43 44 45 45 46 48 50 51 54 56 56 56 56 55 54 53 54 55 55 54 56 59 64 68 70 68 69 73 71 63 60 64 67 66 64 65 63 63 70 77 77 73 72 78 85 87 88 87 86 87 88
18 18 19 22 23 23 23 22 23 26 26 26 28 25 23 35 50 55 55 56 55 51 48 46 43 42 43 42 43 44 43 44 45 46 45 44 45 44 43 42 40 40 41 42 43 43 43 43 43 45 46 47 49 50 52 54 56 56 56 56 55 55 54 54 54 53 54 56 58 60 63 66 72 76 75 68 64 66 69 68 66 65 63 63 69 75 74 70 70 77 85 86 85 85 85 87 88
19 20 21 22 23 26 25 24 23 25 28 31 31 25 27 42 56 61 60 57 56 56 51 47 45 45 44 44 44 44 44 45 45 47 46 46 47 45 43 42 41 40 40 41 43 43 43 42 43 45 48 48 50 51 52 54 55 56 56 55 55 55 54 53 53 53 55 56 55 56 59 65 73 80 79 72 68 69 71 70 68 68 65 62 67 75 75 70 71 77 83 84 82 81 82 86 87
20 22 23 22 22 26 27 25 22 24 31 36 32 28 37 54 62 63 62 58 57 59 55 50 47 47 47 45 45 45 45 46 47 48 49 49 49 48 47 45 43 42 42 42 43 43 43 43 44 46 49 51 52 52 52 52 52 53 53 53 53 53 53 53 54 54 56 57 57 58 59 61 68 76 79 76 73 74 74 72 71 71 68 62 64 74 76 72 72 75 80 83 81 78 80 84 86
19 20 23 23 21 23 25 23 21 27 36 37 32 35 46 57 62 60 58 57 57 57 55 51 49 49 49 48 47 47 47 47 48 49 50 51 50 50 49 47 44 43 41 41 42 43 43 43 44 46 48 50 50 50 49 48 49 49 49 50 52 53 54 54 54 54 54 56 58 59 59 59 61 65 70 74 76 77 75 73 72 73 72 65 63 70 75 74 74 76 82 85 82 79 78 79 81
18 18 21 23 21 21 24 26 27 32 38 41 42 50 59 63 64 59 56 59 57 55 54 52 52 53 52 50 49 50 50 49 51 51 50 51 51 50 48 45 44 44 42 42 42 42 43 44 45 45 46 48 48 49 49 49 49 50 49 50 52 53 54 53 54 54 54 56 57 58 60 60 60 61 63 68 73 75 73 73 73 75 76 71 67 67 72 75 76 77 83 86 84 81 79 78 82
18 17 20 21 21 25 27 29 32 30 34 47 51 57 65 65 64 60 58 60 56 53 54 53 55 56 53 52 52 52 52 52 52 51 51 50 50 50 48 45 45 45 44 43 43 42 43 44 44 45 45 47 48 48 49 49 50 51 50 49 49 50 51 51 51 52 53 55 56 58 61 61 61 62 64 67 70 74 74 73 74 76 77 75 69 66 70 76 76 75 79 84 83 81 81 81 82
18 16 18 20 23 30 27 26 32 27 31 48 51 54 61 57 58 63 61 61 58 55 56 55 56 56 54 53 54 53 53 52 51 51 50 50 49 50 49 46 46 47 46 45 44 44 45 45 45 45 45 46 46 47 48 48 49 49 48 47 46 46 47 48 49 50 52 53 54 57 61 63 64 65 67 68 71 76 78 77 76 75 76 76 71 66 68 71 70 71 76 79 78 77 79 79 77
20 15 17 19 23 27 25 27 32 26 31 46 48 52 56 48 52 62 60 60 60 58 58 56 56 56 55 55 55 54 54 52 52 52 50 51 51 50 48 47 47 48 48 47 46 46 47 48 47 45 44 44 44 45 47 47 47 48 48 47 46 46 45 46 49 50 51 53 55 58 61 65 67 67 69 71 72 76 80 80 78 76 77 78 73 66 66 68 66 68 72 73 73 75 75 75 73
23 20 19 19 21 24 25 27 27 24 31 45 49 50 53 53 55 56 55 58 60 60 60 58 58 60 58 58 57 56 55 54 54 53 52 52 51 48 47 47 47 48 48 48 47 48 49 49 48 46 42 41 41 43 44 46 47 48 50 50 49 47 46 46 48 50 51 53 56 60 65 69 70 70 71 73 73 76 81 80 78 76 78 80 73 65 66 68 67 67 69 69 71 74 75 73 70
24 24 21 20 23 24 26 28 26 25 29 40 47 46 53 62 61 55 55 57 58 61 62 61 62 63 61 60 59 57 56 55 55 55 53 52 50 48 47 45 45 45 46 46 45 46 47 47 48 47 44 41 41 43 43 45 47 49 50 51 51 50 48 48 49 50 50 53 55 60 67 72 74 72 73 75 75 77 79 79 77 77 79 79 71 65 64 65 65 66 69 70 72 75 77 73 69
24 23 21 22 25 26 29 30 29 27 28 33 37 43 59 68 64 61 63 61 60 63 64 65 67 66 64 62 59 57 57 57 57 56 54 52 49 47 46 45 45 45 45 45 45 46 47 46 47 48 48 44 43 44 45 45 45 45 47 48 49 50 50 50 50 50 51 54 57 60 65 72 76 76 75 77 77 76 77 78 77 78 80 77 70 64 61 59 60 65 68 71 73 75 77 74 70